| time (UTC) | temp F | wind direction | speed knots | gust knots | rain 1hr in | rain 24hr in | rain mn in | humidity % | barometer mb |
| 20260504081545 | 36 | 200 | 0.0 | 0.0 | 0.00 | 0.01 | 0.01 | 88 | 948.7 |
| 20260504050015 | 31 | 201 | 0.0 | 0.0 | 0.00 | 0.00 | 0.00 | 85 | 948.7 |
| 20260504044507 | 30 | 201 | 0.0 | 0.0 | 0.00 | 0.00 | 0.00 | 85 | 948.9 |
| 20260504043004 | 30 | 201 | 0.0 | 0.0 | 0.00 | 0.00 | 0.00 | 85 | 949.1 |
| 20260504041501 | 29 | 201 | 0.0 | 0.0 | 0.00 | 0.00 | 0.00 | 84 | 949.2 |
| 20260504040100 | 29 | 201 | 0.0 | 0.0 | 0.00 | 0.00 | 0.00 | 84 | 949.2 |
| 20260504034558 | 30 | 201 | 0.0 | 0.0 | 0.00 | 0.00 | 0.00 | 83 | 949.0 |
| 20260504033101 | 0 | 201 | 0.0 | 0.0 | 0.00 | 0.00 | 0.00 | 83 | 949.0 |
| 20260504031555 | 31 | 201 | 0.0 | 0.0 | 0.00 | 0.00 | 0.00 | 82 | 949.1 |
| 20260504030054 | 30 | 201 | 0.0 | 0.0 | 0.00 | 0.00 | 0.00 | 83 | 949.3 |
| 20260504024553 | 30 | 201 | 0.0 | 0.0 | 0.00 | 0.00 | 0.00 | 81 | 949.2 |
| 20260504023051 | 31 | 201 | 0.0 | 0.0 | 0.00 | 0.00 | 0.00 | 80 | 949.1 |
| 20260504021548 | 0 | 201 | 0.0 | 0.0 | 0.00 | 0.00 | 0.00 | 78 | 949.2 |
| 20260504020125 | 32 | 201 | 0.0 | 0.0 | 0.00 | 0.00 | 0.00 | 76 | 949.3 |
| 20260504014555 | 33 | 201 | 0.0 | 0.0 | 0.00 | 0.00 | 0.00 | 74 | 949.4 |
| 20260504013047 | 34 | 201 | 0.0 | 0.0 | 0.00 | 0.00 | 0.00 | 73 | 949.3 |
| 20260504011534 | 35 | 201 | 0.0 | 0.0 | 0.00 | 0.00 | 0.00 | 71 | 949.1 |
| 20260504010030 | 0 | 201 | 0.0 | 0.0 | 0.00 | 0.00 | 0.00 | 69 | 949.0 |
| 20260504004533 | 38 | 201 | 0.0 | 0.0 | 0.00 | 0.00 | 0.00 | 67 | 949.0 |
| 20260504003028 | 39 | 201 | 0.0 | 0.0 | 0.00 | 0.00 | 0.00 | 66 | 948.8 |
| 20260504001527 | 40 | 201 | 0.0 | 0.0 | 0.00 | 0.00 | 0.00 | 62 | 948.7 |
| 20260504000027 | 41 | 203 | 0.0 | 0.0 | 0.00 | 0.00 | 0.00 | 61 | 948.7 |
| 20260503234526 | 0 | 203 | 0.0 | 0.0 | 0.00 | 0.00 | 0.00 | 59 | 948.5 |
| 20260503233024 | 43 | 203 | 0.0 | 8.7 | 0.00 | 0.00 | 0.00 | 54 | 948.4 |
| 20260503231523 | 44 | 202 | 0.0 | 5.2 | 0.00 | 0.00 | 0.00 | 52 | 948.5 |
| 20260503230026 | 44 | 207 | 1.7 | 11.3 | 0.00 | 0.00 | 0.00 | 51 | 948.4 |
| 20260503224520 | 46 | 30 | 0.9 | 3.5 | 0.00 | 0.00 | 0.00 | 50 | 948.3 |
| 20260503223019 | 45 | 285 | 0.9 | 6.1 | 0.00 | 0.00 | 0.00 | 51 | 948.3 |
| 20260503221516 | 44 | 264 | 2.6 | 7.0 | 0.00 | 0.00 | 0.00 | 52 | 948.3 |
| 20260503220016 | 0 | 59 | 1.7 | 7.0 | 0.00 | 0.00 | 0.00 | 51 | 948.2 |
| 20260503214518 | 44 | 260 | 1.7 | 13.0 | 0.00 | 0.00 | 0.00 | 51 | 948.2 |
| 20260503213014 | 45 | 285 | 2.6 | 7.8 | 0.00 | 0.00 | 0.00 | 51 | 948.3 |
| 20260503211511 | 45 | 243 | 1.7 | 10.4 | 0.00 | 0.00 | 0.00 | 53 | 948.3 |
| 20260503210012 | 43 | 245 | 1.7 | 11.3 | 0.00 | 0.00 | 0.00 | 52 | 948.2 |
| 20260503204509 | 0 | 274 | 0.9 | 8.7 | 0.00 | 0.00 | 0.00 | 53 | 948.2 |
| 20260503203020 | 44 | 200 | 3.5 | 11.3 | 0.00 | 0.00 | 0.00 | 53 | 948.1 |
| 20260503201506 | 44 | 286 | 2.6 | 7.8 | 0.00 | 0.00 | 0.00 | 53 | 948.0 |
| 20260503200005 | 43 | 113 | 3.5 | 7.8 | 0.00 | 0.00 | 0.00 | 54 | 948.2 |
| 20260503194503 | 43 | 234 | 4.3 | 10.4 | 0.00 | 0.00 | 0.00 | 51 | 948.3 |
| 20260503193003 | 0 | 262 | 3.5 | 9.6 | 0.00 | 0.00 | 0.00 | 50 | 948.2 |
| 20260503191559 | 44 | 246 | 3.5 | 11.3 | 0.00 | 0.00 | 0.00 | 50 | 948.4 |
| 20260503190108 | 0 | 231 | 5.2 | 14.8 | 0.00 | 0.00 | 0.00 | 50 | 948.3 |
| 20260503184555 | 44 | 250 | 1.7 | 10.4 | 0.00 | 0.00 | 0.00 | 53 | 948.1 |
| 20260503183054 | 43 | 242 | 0.0 | 12.2 | 0.00 | 0.00 | 0.00 | 52 | 948.2 |
| 20260503181559 | 43 | 86 | 5.2 | 11.3 | 0.00 | 0.00 | 0.00 | 52 | 948.5 |
| 20260503180054 | 44 | 267 | 3.5 | 11.3 | 0.00 | 0.00 | 0.00 | 51 | 948.4 |
| 20260503174549 | 0 | 207 | 0.9 | 7.0 | 0.00 | 0.04 | 0.00 | 50 | 948.4 |
| 20260503173047 | 44 | 70 | 0.9 | 8.7 | 0.00 | 0.04 | 0.00 | 50 | 948.3 |
| 20260503171544 | 44 | 69 | 3.5 | 8.7 | 0.00 | 0.04 | 0.00 | 50 | 948.3 |